This is the latest recevied weather packets stored in our database for station/object KB2SKP. If no packets are shown the sender has not sent any weather packets the latest 10 day(s).
| Time | Temp. | Humidity | Pressure | Rain* | Wind** | Luminosity | Snow |
|---|---|---|---|---|---|---|---|
| 1778329762 | 16.11° C | 78% | 1009 hPa | 0 mm | - | 58 W/m² | - |
| 1778329460 | 15.56° C | 78% | 1009 hPa | 0 mm | - | 49 W/m² | - |
| 1778329156 | 15.56° C | 79% | 1009 hPa | 0 mm | - | 44 W/m² | - |
| 1778328853 | 15.56° C | 79% | 1008.9 hPa | 0 mm | - | 42 W/m² | - |
| 1778328552 | 15° C | 79% | 1009 hPa | 0 mm | - | 39 W/m² | - |
| 1778328249 | 15° C | 79% | 1009 hPa | 0 mm | - | 37 W/m² | - |
| 1778327947 | 15° C | 80% | 1009.1 hPa | 0 mm | - | 35 W/m² | - |
| 1778327644 | 15° C | 80% | 1009.3 hPa | 0 mm | - | 35 W/m² | - |
| 1778327341 | 15° C | 80% | 1009.1 hPa | 0 mm | - | 36 W/m² | - |
| 1778327040 | 14.44° C | 81% | 1008.9 hPa | 0 mm | - | 30 W/m² | - |
| 1778326739 | 14.44° C | 82% | 1009.1 hPa | 0 mm | - | 25 W/m² | - |
| 1778326435 | 14.44° C | 82% | 1009.1 hPa | 0 mm | - | 23 W/m² | - |
| 1778326132 | 13.89° C | 83% | 1009 hPa | 0 mm | - | 21 W/m² | - |
| 1778325829 | 13.89° C | 83% | 1009.1 hPa | 0 mm | - | 19 W/m² | - |
| 1778325527 | 13.89° C | 83% | 1008.9 hPa | 0 mm | - | 17 W/m² | - |
| 1778325223 | 13.89° C | 84% | 1009 hPa | 0 mm | - | 16 W/m² | - |
| 1778324921 | 13.89° C | 84% | 1009.1 hPa | 0 mm | - | 15 W/m² | - |
| 1778324617 | 13.89° C | 84% | 1009.2 hPa | 0 mm | - | 14 W/m² | - |
| 1778324315 | 13.33° C | 85% | 1009.2 hPa | 0 mm | - | 14 W/m² | - |
| 1778324013 | 13.33° C | 85% | 1009.4 hPa | 0 mm | - | 13 W/m² | - |
| 1778323709 | 13.33° C | 86% | 1009.2 hPa | 0 mm | - | 12 W/m² | - |
| 1778323406 | 12.78° C | 86% | 1009.2 hPa | 0 mm | - | 10 W/m² | - |
| 1778323104 | 12.78° C | 87% | 1009.1 hPa | 0 mm | - | 9 W/m² | - |
| 1778322801 | 12.78° C | 88% | 1009.1 hPa | 0 mm | - | 8 W/m² | - |
| 1778322500 | 12.22° C | 88% | 1009.3 hPa | 0 mm | - | 6 W/m² | - |
* Rain latest hour (hover to see other rain measurements)
** Current wind speed in m/s (hover to see current wind gust speed)